Regional Weather Roundup
Issued by NWS

Home | Current Version | Previous Version | Graphics & Text | Print | Product List | Glossary On
Versions: 1 2 3 4 5 6 7 8 9 10 11 12 13 14 15 16 17 18 19 20 21 22 23 24 25 26 27
000
ASUS45 KSLC 201310
RWRUT

UTAH REGIONAL WEATHER ROUNDUP
NATIONAL WEATHER SERVICE SALT LAKE CITY UT
700 AM MDT FRI OCT 20 2017

UTZ001>011-023>025-201400-

NORTHERN UTAH

CITY           SKY/WX    TMP DP  RH WIND       PRES   REMARKS
BRIGHAM CITY   MOCLDY    58  33  37 S13       29.56F
HILL AFB       CLOUDY    61  32  34 S23       29.58F
LOGAN          MOCLDY    35  29  78 CALM      29.56F
OGDEN          CLOUDY    63  33  32 S18       29.57F
SALT LAKE CITY CLOUDY    63  35  35 S12       29.59F
TOOELE VALLEY  MOCLDY    64  32  29 S32G38    29.57F
WENDOVER       CLEAR     41  22  46 SE5       29.56F
WEST JORDAN    CLOUDY    58  37  44 S21       29.62S

$$

UTZ011>015-024>027-201400-

CENTRAL/NORTHEAST UTAH

CITY           SKY/WX    TMP DP  RH WIND       PRES   REMARKS
PROVO AIRPORT  MOCLDY    55  37  50 S15       29.65F
MOAB/CANYONLAN CLEAR     56  36  47 CALM      29.76F
DELTA          MOCLDY    54  28  37 S9        29.66F
PRICE          CLEAR     47  31  53 E7        29.82S
RICHFIELD      CLEAR     46  32  57 CALM      29.74F
ROOSEVELT      LGT SNOW  37  30  75 W3        29.80F
VERNAL         CLEAR     41  27  57 W7        29.79S

$$

UTZ013>016-019>022-027-201400-

SOUTHERN UTAH

CITY           SKY/WX    TMP DP  RH WIND       PRES   REMARKS
BRYCE CANYON   CLEAR     30  25  81 SE6       29.93F WCI  24
CEDAR CITY     CLEAR     59  29  31 S20G31    29.73F
MILFORD        CLEAR     51  29  42 SW18      29.69F
ST GEORGE      MOSUNNY   60  33  36 SE14      29.71F
HANKSVILLE     CLEAR     45  32  61 NE5       29.80S
KANAB          CLEAR     36  27  69 NE6       29.89F WCI  31
BLANDING         N/A     42  33  68 NE7       30.00S

$$

REGIONAL REPORTS     COLORADO/ARIZONA

CITY           SKY/WX    TMP DP  RH WIND       PRES   REMARKS
CRAIG, CO      PTCLDY    36  30  79 CALM      29.84F
GRAND JUNCTION CLEAR     57  35  43 SE15      29.80S
RIFLE, CO      CLOUDY    48  35  60 CALM      29.84F
MONTROSE, CO   PTCLDY    50  31  48 SE8       29.91S
CORTEZ, CO     CLEAR     41  35  79 CALM      29.96R
COLORADO CITY    N/A     46  34  61 SE7       29.86F
PAGE, AZ       CLEAR     60  36  40 S7        29.82F
GRAND CANYON   CLEAR     33  28  81 NE7       30.00R WCI  27
KINGMAN, AZ    CLEAR     55  32  41 SE10      29.82F
FLAGSTAFF, AZ  CLEAR     46  32  58 SW8       30.03R

$$

REGIONAL REPORTS    NEVADA/IDAHO/WYOMING

CITY           SKY/WX    TMP DP  RH WIND       PRES   REMARKS
LAS VEGAS, NV  PTCLDY    69  41  36 S16G28    29.67S
ELY, NY        CLEAR     50  21  32 S18G28    29.70R
ELKO, NV       MOCLDY    42  19  39 W3        29.62R
POCATELLO, ID  PTCLDY    60  31  33 S31G41    29.47F
BURLEY, ID     CLOUDY    53  23  31 W5        29.50F
FORT BRIDGER,    N/A     51  31  46 SW14      29.77F
EVANSTON, WY   CLOUDY    47  33  58 S12       29.72F
ROCK SPRINGS,  CLOUDY    49  25  39 S16       29.75F
KEMMERER, WY   CLOUDY    46  32  57 S10       29.74F

$$




USA.gov is the U.S. government's official web portal to all federal, state and local government web resources and services.